Regional Weather Roundup
Issued by NWS

Home | Current Version | Previous Version | Graphics & Text | Print | Product List | Glossary On
Versions: 1 2 3 4 5 6 7 8 9 10 11 12 13 14 15 16 17 18 19 20 21 22 23 24 25 26 27 28 29 30 31 32 33 34 35 36 37 38 39 40 41 42 43 44 45 46 47 48 49 50
000
ASUS43 KFSD 011110
RWRSD

WEATHER ROUNDUP FOR SOUTH DAKOTA
NATIONAL WEATHER SERVICE SIOUX FALLS SD
500 AM CST SUN MAR 01 2015

NOTE: "FAIR" INDICATES FEW OR NO CLOUDS BELOW 12,000 FEET WITH NO
SIGNIFICANT WEATHER AND/OR OBSTRUCTIONS TO VISIBILITY.


SDZ001>005-009-010-012>017-011200-
NORTHWEST AND NORTH CENTRAL SOUTH DAKOTA

CITY           SKY/WX    TMP DP  RH WIND       PRES   REMARKS
BUFFALO          N/A     10   5  80 W8        30.08R WCI  -2
FAITH            N/A     12   6  77 W9        30.18S WCI   0
MOBRIDGE       PTCLDY     2  -1  88 CALM      30.18S
$$

SDZ012>016-024>037-041>051-057-063-072>074-011200-
SOUTHWEST AND SOUTH CENTRAL SOUTH DAKOTA

CITY           SKY/WX    TMP DP  RH WIND       PRES   REMARKS
RAPID CTY ARPT PTCLDY    11   7  84 W3        30.20R
PIERRE         MOCLDY    13   4  67 W12       30.25R WCI  -1
CUSTER         CLEAR      5   1  83 SW6       30.04R WCI  -6
ELLSWORTH AFB  CLEAR     12   7  79 SW2       30.18S
PHILIP         MOCLDY    14   7  73 W6        30.25S WCI   5
PINE RIDGE     CLOUDY    17  11  77 CALM      30.21R
WINNER         CLOUDY    18   4  54 W7        30.27R WCI   9
$$

SDZ004>011-016>023-039-040-011200-
NORTHEAST SOUTH DAKOTA

CITY           SKY/WX    TMP DP  RH WIND       PRES   REMARKS
ABERDEEN       PTCLDY     1  -4  79 S7        30.24R WCI -12
WATERTOWN      PTCLDY     2  -3  80 W6        30.20S WCI  -9
$$

SDZ017-020-022-023-036>040-048>070-011200-
SOUTHEAST SOUTH DAKOTA

CITY           SKY/WX    TMP DP  RH WIND       PRES   REMARKS
SIOUX FALLS    MOCLDY    12   8  84 CALM      30.27R
HURON          PTCLDY     3  -1  83 SW3       30.29R
CHAMBERLAIN    CLOUDY    15  10  80 W6        30.27S WCI   7
MITCHELL       CLEAR     11   6  81 SW6       30.30R WCI   1
YANKTON        PTCLDY    16  10  79 NW8       30.31S WCI   5
$$

ABBREVIATIONS USED IN REMARKS
   TC - TEMPERATURE IN CELSIUS
  WCI - WIND CHILL INDEX
   HX - HEAT INDEX
  VSB - VISIBILITY




USA.gov is the U.S. government's official web portal to all federal, state and local government web resources and services.